Weather History for Florence, SC

Change the Weather History Date:

Tuesday, December 18, 2012

  Actual Average Record
Temperature  
Mean Temperature 65 °F 46 °F  
Max Temperature 70 °F 57 °F 77 °F (1967)
Min Temperature 59 °F 36 °F 16 °F (1953)
Degree Days  
Heating Degree Days 0 19  
Month to date heating degree days 108 301  
Since 1 July heating degree days 585 723  
Cooling Degree Days 0 0  
Month to date cooling degree days 6 0  
Year to date cooling degree days 2316 2059  
Growing Degree Days 8 (Base 50)    
Moisture  
Dew Point 48 °F    
Average Humidity 58    
Maximum Humidity 80    
Minimum Humidity 36    
Precipitation  
Precipitation 0.00 in 0.10 in 2.35 in (1959)
Month to date precipitation 1.87 1.68  
Year to date precipitation 39.39 41.58  
Sea Level Pressure  
Sea Level Pressure 29.79 in    
Wind  
Wind Speed 12 mph (WSW)    
Max Wind Speed 22 mph    
Max Gust Speed 32 mph    
Visibility 10 miles    
Events      
T = Trace of Precipitation, MM = Missing Value Source: NWS Daily Summary

Daily Weather History Graph

Daily Weather History Graph

Search for Another Location

Airport:

Trip Planner

Search our weather history database for the weather conditions in past years. The results will help you decide how hot, cold, wet, or windy it might be!

Date:

Astronomy

Dec. 18, 2012 Rise Set
Actual Time 7:19 AM EST 5:12 PM EST
Civil Twilight 6:51 AM EST 5:39 PM EST
Nautical Twilight 6:20 AM EST 6:11 PM EST
Astronomical Twilight 5:49 AM EST 6:41 PM EST
Moon 11:12 AM EST (12/18) 11:20 PM EST (12/18)
Length of Visible Light 10h 48m
Length of Day
9h 52m
Waxing Crescent, 34% of the Moon is Illuminated
Dec 18
Waxing Crescent
Dec 20
First Quarter
Dec 28
Full
Jan 4
Last Quarter
Jan 11
New

Hourly Weather History & Observations

Time (EST) Temp. Dew Point Humidity Pressure Visibility Wind Dir Wind Speed Gust Speed Precip Events Conditions
12:18 AM 62.6 °F 55.4 °F 77% 29.73 in 10.0 mi WSW 8.1 mph - N/A   Overcast
12:53 AM 63.0 °F 55.9 °F 78% 29.73 in 10.0 mi WSW 11.5 mph - N/A   Overcast
1:19 AM 62.6 °F 55.4 °F 77% 29.74 in 10.0 mi SW 9.2 mph - N/A   Overcast
1:53 AM 63.0 °F 55.9 °F 78% 29.74 in 10.0 mi SW 8.1 mph - N/A   Overcast
2:44 AM 62.6 °F 55.4 °F 77% 29.74 in 10.0 mi SW 8.1 mph - N/A   Overcast
2:53 AM 63.0 °F 55.9 °F 78% 29.73 in 10.0 mi SW 9.2 mph - N/A   Overcast
3:53 AM 60.1 °F 54.0 °F 80% 29.71 in 10.0 mi SSW 6.9 mph - N/A   Clear
4:53 AM 60.1 °F 54.0 °F 80% 29.72 in 10.0 mi SW 9.2 mph - N/A   Clear
5:53 AM 59.0 °F 53.1 °F 81% 29.73 in 10.0 mi SW 6.9 mph - N/A   Clear
6:53 AM 59.0 °F 53.1 °F 81% 29.73 in 10.0 mi SW 9.2 mph - N/A   Partly Cloudy
7:14 AM 59.0 °F 53.6 °F 82% 29.75 in 10.0 mi SW 9.2 mph - N/A   Partly Cloudy
7:21 AM 59.0 °F 53.6 °F 82% 29.75 in 10.0 mi WSW 9.2 mph - N/A   Mostly Cloudy
7:53 AM 61.0 °F 54.0 °F 78% 29.76 in 10.0 mi WSW 15.0 mph 21.9 mph N/A   Overcast
8:20 AM 60.8 °F 53.6 °F 77% 29.76 in 10.0 mi WSW 11.5 mph - N/A   Mostly Cloudy
8:29 AM 60.8 °F 53.6 °F 77% 29.76 in 10.0 mi WSW 9.2 mph - N/A   Scattered Clouds
8:53 AM 62.1 °F 54.0 °F 75% 29.75 in 10.0 mi SW 11.5 mph - N/A   Clear
9:53 AM 64.9 °F 53.1 °F 65% 29.77 in 10.0 mi WSW 11.5 mph 19.6 mph N/A   Clear
10:53 AM 68.0 °F 50.0 °F 52% 29.77 in 10.0 mi West 12.7 mph 20.7 mph N/A   Scattered Clouds
11:53 AM 66.0 °F 48.0 °F 52% 29.75 in 10.0 mi West 15.0 mph 24.2 mph N/A   Mostly Cloudy
12:53 PM 69.1 °F 46.0 °F 44% 29.74 in 10.0 mi West 15.0 mph 21.9 mph N/A   Scattered Clouds
1:53 PM 68.0 °F 44.1 °F 42% 29.76 in 10.0 mi WNW 15.0 mph 25.3 mph N/A   Partly Cloudy
2:53 PM 69.1 °F 41.0 °F 36% 29.78 in 10.0 mi West 13.8 mph 21.9 mph N/A   Mostly Cloudy
3:53 PM 66.0 °F 39.9 °F 38% 29.81 in 10.0 mi WNW 15.0 mph 23.0 mph N/A   Partly Cloudy
4:53 PM 64.0 °F 35.1 °F 34% 29.85 in 10.0 mi WNW 10.4 mph - N/A   Clear
5:53 PM 60.1 °F 34.0 °F 38% 29.87 in 10.0 mi West 6.9 mph - N/A   Clear
6:53 PM 57.0 °F 34.0 °F 42% 29.90 in 10.0 mi West 3.5 mph - N/A   Clear
7:53 PM 54.0 °F 34.0 °F 47% 29.93 in 10.0 mi West 4.6 mph - N/A   Clear
8:53 PM 52.0 °F 36.0 °F 54% 29.94 in 10.0 mi West 4.6 mph - N/A   Clear
9:53 PM 54.0 °F 37.0 °F 53% 29.95 in 10.0 mi WNW 6.9 mph - N/A   Clear
10:53 PM 48.9 °F 37.0 °F 64% 29.95 in 10.0 mi WSW 5.8 mph - N/A   Clear
11:53 PM 46.9 °F 36.0 °F 66% 29.95 in 10.0 mi WSW 5.8 mph - N/A   Clear